TIANWANG 1C (TW-1C)
1 40926U 15051B   17356.49851471  .00009272  00000-0  18974-3 0  9996
2 40926  97.2068  34.7822 0009848 194.5130 275.3718 15.46280642125989
TIANWANG 1B (TW-1B)
1 40927U 15051C   17356.38580882  .00009101  00000-0  19386-3 0  9999
2 40927  97.2162  34.5984 0009505 206.9168 280.1853 15.45111788125898
TIANWANG 1A (TW-1A)
1 40928U 15051D   17356.39512549  .00003385  00000-0  93659-4 0  9990
2 40928  97.2062  28.7862 0010709 235.5749 249.3688 15.37640111125609
LAPAN A2
1 40931U 15052B   17356.15796760  .00000592  00000-0 -67774-5 0  9996
2 40931   6.0018 332.4486 0014368  22.9720 337.1074 14.76558742120791
LQSAT
1 40958U 15057A   17356.41492867  .00000056  00000-0  16480-4 0  9991
2 40958  97.9616  68.2703 0017941 179.0357 181.0891 14.73008094118820
CHUBUSAT 2
1 41338U 16012B   17355.43281838 +.00000393 +00000-0 +24112-4 0  9996
2 41338 031.0047 002.9246 0013874 113.2411 246.9686 14.99891976101124
CHUBUSAT 3
1 41339U 16012C   17356.40070805  .00000368  00000-0  21991-4 0  9999
2 41339  31.0106 355.6297 0013626 129.1101 231.0747 15.00086145101256
OUFTI-1
1 41458U 16025C   17356.17783279  .00001635  00000-0  89666-4 0  9996
2 41458  98.1626  44.4022 0171907  21.5262 339.3083 15.04077334 90827
E-STAR-2
1 41459U 16025D   17356.08926836  .00002380  00000-0  12883-3 0  9999
2 41459  98.1624  44.2116 0172776  22.0675 338.7900 15.03850942 90809
AAUSAT 4
1 41460U 16025E   17356.09031648  .00002910  00000-0  15549-3 0  9991
2 41460  98.1566  44.4708 0164699  19.3543 341.3848 15.05063603 90840
NUSAT 1
1 41557U 16033B   17356.23100452  .00001554  00000-0  59783-4 0  9995
2 41557  97.4505  75.6995 0015427  66.4329 293.8529 15.27844950 87136
BEESAT 4
1 41619U 16040W   17356.13188292  .00001704  00000-0  78492-4 0  9994
2 41619  97.4398  56.5513 0013124 126.7346 233.5097 15.21586976 71162
PRATHAM
1 41783U 16059A   17355.78176507  .00000071  00000-0  23321-4 0  9999
2 41783  98.1438  54.9738 0032406 293.2986  66.4806 14.62888804 66021
ALSAT 1N
1 41789U 16059G   17356.09286963  .00000118  00000-0  31562-4 0  9996
2 41789  98.1449  56.1499 0027058 285.7731  74.0492 14.64112592 66109
NAYIF 1
1 42017U 17008BX  17356.16321935  .00001831  00000-0  78909-4 0  9992
2 42017  97.4726  57.1075 0004969 285.6687  74.4002 15.23864627 47109
LILACSAT-1
1 42725U 98067ME  17355.96020243  .00015558  00000-0  18068-3 0  9997
2 42725  51.6362 176.6772 0004606 277.3567  82.6903 15.61947268 32758
MAX VALIER SAT
1 42778U 17036P   17355.76262220  .00001187  00000-0  56708-4 0  9990
2 42778  97.4289  53.2138 0011961 337.8420  22.2297 15.20922990 27536
